TimeMDT,TemperatureF,Dew PointF,Humidity,Sea Level PressureIn,VisibilityMPH,Wind Direction,Wind SpeedMPH,Gust SpeedMPH,PrecipitationIn,Events,Conditions,WindDirDegrees,DateUTC
12:53 AM,33.1,28.9,85,30.07,10.0,Calm,Calm,-,N/A,,Clear,0,2011-10-10 06:53:00
1:53 AM,30.0,27.0,88,30.08,10.0,Calm,Calm,-,N/A,,Clear,0,2011-10-10 07:53:00
2:53 AM,30.9,28.0,89,30.08,10.0,Calm,Calm,-,N/A,,Clear,0,2011-10-10 08:53:00
3:53 AM,30.9,28.0,89,30.07,10.0,Calm,Calm,-,N/A,,Clear,0,2011-10-10 09:53:00
4:53 AM,30.0,27.0,88,30.07,10.0,ENE,3.5,-,N/A,,Clear,60,2011-10-10 10:53:00
5:53 AM,30.0,27.0,88,30.09,10.0,ENE,3.5,-,N/A,,Clear,60,2011-10-10 11:53:00
7:53 AM,30.9,28.0,89,30.12,10.0,Calm,Calm,-,N/A,,Clear,0,2011-10-10 13:53:00
8:53 AM,37.9,32.0,79,30.13,10.0,East,3.5,-,N/A,,Clear,100,2011-10-10 14:53:00
9:53 AM,46.9,33.1,59,30.11,10.0,Calm,Calm,-,N/A,,Clear,0,2011-10-10 15:53:00
10:53 AM,51.1,32.0,48,30.09,10.0,Variable,3.5,-,N/A,,Clear,0,2011-10-10 16:53:00
12:53 PM,57.9,32.0,37,30.04,10.0,SW,13.8,-,N/A,,Clear,230,2011-10-10 18:53:00
2:53 PM,60.1,30.0,32,29.99,10.0,South,6.9,-,N/A,,Clear,190,2011-10-10 20:53:00
3:53 PM,61.0,28.9,30,29.97,10.0,SSW,9.2,-,N/A,,Clear,200,2011-10-10 21:53:00
4:53 PM,60.1,28.0,30,29.97,10.0,SSW,8.1,-,N/A,,Clear,210,2011-10-10 22:53:00
5:53 PM,59.0,28.0,31,29.96,10.0,South,5.8,-,N/A,,Clear,190,2011-10-10 23:53:00
6:53 PM,48.0,30.9,52,30.00,10.0,SSE,4.6,-,N/A,,Clear,150,2011-10-11 00:53:00
8:53 PM,41.0,32.0,70,30.01,10.0,East,6.9,-,N/A,,Clear,90,2011-10-11 02:53:00
9:53 PM,39.9,33.1,77,29.99,10.0,East,5.8,-,N/A,,Clear,80,2011-10-11 03:53:00
10:53 PM,39.9,34.0,79,29.97,10.0,Calm,Calm,-,N/A,,Clear,0,2011-10-11 04:53:00
11:53 PM,39.0,34.0,82,29.95,10.0,Calm,Calm,-,N/A,,Partly Cloudy,0,2011-10-11 05:53:00